Dewpoint
74 74 74 76 76 76 76 77 76 76 77 77 76 76 77 76 76 77 77 77 76 75 76 75 75 76 75 75 75 75 75 75 76 75 75 75 75 75 75 76 76 75 75 75 75 76 76 76 76 77 77 77 77 77 78 78 78 78 77 77 77 77 77 76 76 76 76 76 76 77 76 77 77 76 76 76 76 76 76 75 76 74 76 76 76
73 73 73 75 76 76 77 77 76 76 76 76 76 76 76 77 77 76 76 76 76 75 76 76 76 76 75 75 76 75 75 75 75 75 75 75 75 75 75 76 76 75 75 75 75 76 76 76 76 77 77 77 77 77 77 78 77 77 77 77 77 77 76 76 76 76 76 76 76 76 76 76 77 77 77 76 76 76 77 77 76 74 75 76 76
72 72 73 74 76 76 76 76 77 77 76 76 76 76 76 76 76 76 77 76 76 76 76 76 76 76 75 75 75 74 75 75 75 75 75 75 75 75 75 76 76 75 75 75 75 75 75 76 76 76 76 77 77 77 77 77 77 77 77 77 77 77 76 76 76 76 76 76 76 76 76 76 76 77 76 76 76 77 76 76 75 76 74 75 75
72 71 73 75 76 76 76 76 76 77 76 76 76 75 76 76 76 76 76 76 76 76 76 76 76 76 76 76 76 75 74 75 75 75 75 76 75 76 76 76 76 76 75 75 75 75 76 76 76 76 76 77 77 77 77 77 77 77 77 77 77 77 76 76 76 76 76 75 75 75 76 75 75 76 76 76 76 74 75 76 76 76 76 75 76
71 71 73 74 75 76 76 76 76 77 76 76 76 76 76 76 76 76 76 76 76 76 76 76 76 76 76 76 76 76 75 75 75 75 75 75 75 75 75 75 75 75 75 75 75 75 75 75 76 76 76 76 77 77 76 77 77 77 76 77 76 77 76 76 76 76 76 75 75 74 76 75 76 76 76 76 75 74 74 76 76 76 75 76 76
71 72 71 72 74 75 76 76 76 76 76 76 76 76 76 76 76 76 76 76 76 76 76 76 76 77 77 77 77 77 76 76 76 76 76 75 75 76 76 75 75 75 75 75 74 75 75 75 75 75 75 76 76 76 76 76 76 76 76 76 76 76 76 76 76 76 75 75 75 78 76 75 76 75 75 75 73 73 74 75 75 76 76 76 76
70 70 69 72 73 75 76 76 76 75 76 76 76 76 75 75 76 76 76 76 76 76 76 76 77 77 77 77 77 77 77 77 77 76 77 76 76 76 76 76 76 76 75 75 76 75 75 75 75 75 75 75 76 76 76 76 76 76 76 76 76 76 76 76 76 76 75 75 77 76 75 73 74 73 75 73 72 73 75 76 74 74 74 74 75
69 70 70 71 73 75 76 76 76 76 76 76 76 76 76 76 76 75 76 75 76 76 76 76 76 76 76 76 76 76 77 77 77 77 77 76 76 75 76 76 76 75 76 76 75 75 75 75 75 75 75 75 75 75 75 75 75 76 76 76 75 76 76 76 76 76 76 74 76 76 76 74 73 73 76 74 73 74 75 75 75 74 74 74 75
70 70 71 72 74 76 76 76 76 76 76 76 76 76 76 76 76 75 75 76 75 76 76 76 76 76 76 76 76 76 76 76 76 76 76 76 75 75 75 75 76 76 75 75 75 75 75 75 75 75 75 75 75 75 75 75 75 75 76 76 75 75 75 74 75 74 74 75 73 73 73 74 73 73 74 75 74 74 75 75 75 75 74 75 75
70 71 72 73 74 75 75 75 75 75 76 76 76 76 76 76 75 75 75 76 75 76 76 75 76 76 75 75 75 75 76 76 76 76 75 75 75 75 75 75 75 75 75 75 75 75 75 75 75 75 75 75 75 75 75 75 75 75 75 75 75 75 75 74 74 73 73 75 74 73 73 75 73 73 75 75 75 74 75 76 75 76 75 76 76
70 71 73 73 74 75 75 75 75 75 76 76 76 76 75 75 75 75 76 75 75 75 75 75 75 75 75 76 76 76 76 76 76 75 75 75 75 75 75 75 75 75 75 75 75 75 75 75 75 75 75 75 75 75 75 75 75 75 75 75 75 75 75 75 75 74 74 72 73 72 72 76 71 73 75 75 76 75 76 76 76 77 77 77 76
71 72 72 74 76 76 75 75 75 75 75 75 75 75 76 75 75 75 75 75 75 75 75 75 76 77 76 76 76 76 76 76 76 76 75 75 75 75 75 75 75 75 75 75 75 75 75 75 75 75 75 75 75 75 75 74 74 75 75 75 75 75 75 75 74 75 74 72 72 71 69 73 72 72 76 76 75 75 76 75 76 76 77 77 76
71 72 73 74 75 76 75 75 75 75 75 75 76 76 76 75 75 75 76 75 75 75 75 76 77 77 77 77 77 76 76 77 76 76 76 75 75 75 75 75 75 75 75 75 75 75 75 75 75 75 74 75 75 75 75 74 74 74 74 75 75 75 75 75 74 75 75 73 71 68 70 72 72 77 76 76 75 75 74 74 75 75 76 76 76
71 72 72 73 74 76 75 75 75 75 75 76 76 75 75 75 75 76 76 75 75 75 76 76 77 77 76 77 77 77 76 76 76 76 75 76 75 75 75 75 75 75 75 75 75 75 75 75 75 75 75 74 74 74 75 75 75 75 75 74 75 75 75 75 74 75 73 73 72 69 68 75 74 77 76 76 75 75 74 74 74 74 75 74 75
71 72 73 73 73 74 75 75 75 75 75 76 76 75 75 76 75 75 75 76 76 76 76 76 76 77 76 76 76 76 76 76 76 76 75 75 74 75 75 75 75 75 75 75 75 75 75 75 75 75 75 75 74 74 74 74 75 75 74 74 74 74 75 75 73 74 73 73 73 70 68 73 76 77 76 76 75 75 74 74 74 74 74 74 74
71 72 72 71 73 74 74 76 75 75 76 76 76 75 75 75 76 75 76 75 76 77 76 76 76 76 76 76 76 76 76 75 76 75 75 75 74 75 75 75 75 75 75 76 75 75 75 75 75 75 75 75 75 75 75 75 75 75 75 74 75 74 75 75 76 75 76 75 75 74 71 71 77 76 76 75 75 75 74 74 74 74 74 74 74
71 72 72 72 72 73 73 75 75 75 76 76 76 76 75 75 75 75 75 76 76 76 76 75 76 76 76 76 76 76 76 76 75 75 75 75 75 75 75 75 75 75 75 75 75 75 76 75 75 75 75 75 75 75 75 75 75 75 75 75 75 75 74 75 73 75 75 74 74 74 74 72 76 76 76 75 75 75 75 74 74 75 75 74 74
72 73 72 72 72 73 73 73 74 75 75 75 76 76 75 75 76 76 76 76 75 75 75 75 75 76 76 76 76 76 76 76 75 75 75 75 75 75 75 75 75 75 75 75 75 75 75 75 74 74 75 75 75 75 75 75 75 75 75 76 75 75 75 76 74 76 74 75 74 73 74 72 76 76 76 75 75 75 75 75 74 74 74 74 74
72 73 72 72 73 72 72 72 74 74 75 75 75 75 75 76 76 76 76 76 76 75 75 75 75 75 75 76 76 77 76 76 76 76 75 75 75 75 75 75 75 75 75 75 74 74 74 75 75 75 75 75 75 75 75 75 75 76 76 76 76 76 76 76 74 75 74 75 74 74 73 73 76 76 75 75 75 75 75 74 74 74 74 74 74
73 73 73 73 73 73 73 73 74 74 75 75 76 75 74 75 76 76 76 76 76 76 76 75 75 75 75 75 76 75 75 76 76 76 76 75 75 74 75 74 75 75 75 74 75 75 75 74 75 75 75 75 75 75 75 76 75 75 76 76 75 76 75 74 73 74 75 75 74 73 73 75 76 76 75 75 74 75 75 74 74 75 74 74 74
73 72 73 73 74 73 73 73 74 75 75 75 75 75 75 75 75 76 76 76 76 75 75 75 75 75 75 76 75 75 76 75 75 74 75 75 75 74 75 74 75 75 75 75 75 75 75 75 75 75 75 75 75 75 75 76 76 76 76 77 76 76 75 74 77 78 76 76 76 72 73 78 76 76 76 75 75 75 75 75 74 75 75 74 74
70 71 73 72 73 73 73 73 74 74 75 74 74 74 75 75 75 75 75 75 75 75 75 75 76 76 75 76 76 76 76 75 74 74 74 75 74 75 75 74 75 75 75 75 75 75 75 76 76 76 76 76 76 75 76 76 77 77 77 77 76 76 76 74 74 75 74 74 76 74 73 75 76 77 76 75 75 75 74 74 74 75 75 75 75
69 70 71 72 72 73 73 72 73 74 74 74 74 74 75 75 75 75 75 75 75 75 75 75 76 77 76 76 78 76 75 76 75 71 73 74 73 75 75 75 75 74 75 75 75 76 76 76 76 76 76 76 76 76 76 75 76 77 76 76 76 75 74 73 73 74 72 74 72 73 74 76 78 78 77 76 76 75 75 74 74 75 75 75 74
69 69 70 72 72 72 72 72 73 73 74 73 73 73 74 75 74 74 75 76 75 75 76 76 76 76 76 76 76 76 76 76 74 73 74 73 74 75 75 75 75 75 75 75 76 76 76 76 76 76 76 75 75 74 77 76 75 76 76 75 75 74 73 73 72 72 74 74 72 75 76 76 78 78 77 77 76 76 76 75 75 75 75 75 75
68 69 70 71 71 71 71 72 73 73 73 73 72 71 73 73 73 73 74 74 74 76 76 75 76 77 77 77 75 75 74 75 75 75 74 74 74 73 74 74 75 75 76 75 75 74 75 75 74 76 75 73 71 76 77 76 77 74 75 77 79 74 72 73 74 74 73 75 73 77 78 77 78 78 77 77 77 77 76 76 75 76 76 75 75
68 68 69 70 70 70 71 71 72 72 73 72 71 72 73 72 72 73 73 74 75 75 75 76 75 77 77 75 74 74 73 73 72 70 72 72 73 71 72 72 74 74 74 74 74 75 75 74 73 72 73 79 71 76 72 75 74 76 78 74 77 74 77 76 75 74 74 75 75 78 78 79 78 78 77 77 77 77 77 76 76 75 75 75 75
68 67 68 69 69 69 69 71 71 72 72 72 72 72 72 72 72 72 72 73 74 74 74 75 75 77 76 75 72 71 70 70 70 70 73 72 71 71 70 70 72 73 73 73 73 73 73 73 72 74 74 70 70 75 72 73 73 71 74 73 73 75 75 75 75 74 74 74 76 75 76 77 77 79 78 77 77 77 77 77 76 76 75 75 75
67 67 67 67 68 68 69 70 71 71 73 72 72 71 72 71 72 73 73 73 73 73 72 74 75 76 76 75 74 68 66 66 68 71 71 70 70 70 72 70 69 71 72 70 69 70 69 72 72 69 71 72 67 70 68 71 71 75 73 74 72 73 75 76 76 75 75 73 75 74 76 77 78 79 79 78 78 77 77 77 77 76 76 75 75
66 67 67 66 66 67 69 68 70 71 72 71 71 71 72 72 72 71 72 73 74 73 73 73 74 74 75 75 74 66 64 65 67 67 70 69 70 69 68 68 67 65 68 65 66 70 72 70 74 73 73 74 75 70 71 68 71 73 73 73 69 74 75 74 73 73 75 74 71 72 74 79 79 79 79 79 78 78 77 77 77 77 76 76 76
64 66 68 68 67 67 66 68 70 71 71 70 72 71 72 71 73 73 73 73 72 72 74 72 74 73 72 75 68 67 65 63 65 67 67 70 71 70 71 65 66 72 67 66 70 69 69 70 69 70 72 74 73 70 72 68 71 72 74 69 74 74 73 73 73 74 75 75 73 73 73 79 80 80 79 76 73 74 74 76 77 77 77 77 77
65 64 66 68 70 67 68 69 70 73 71 70 71 72 73 72 73 72 72 72 72 74 74 74 72 72 73 76 76 73 71 62 64 71 74 72 72 72 71 69 71 64 72 67 69 72 70 68 67 71 71 71 70 70 70 72 73 73 74 72 71 72 73 71 71 73 75 74 73 73 73 74 79 80 79 77 74 74 74 74 76 77 77 77 77
64 63 65 67 68 67 70 69 69 71 72 69 73 72 72 72 73 72 71 71 74 73 72 73 74 72 73 76 75 72 74 72 72 70 71 71 68 71 70 70 74 72 72 67 72 73 74 70 73 71 72 75 72 71 71 70 71 70 71 70 68 72 72 72 74 71 73 72 77 74 78 75 75 79 80 79 78 76 77 77 77 77 78 77 76
58 64 65 66 66 66 68 68 69 71 70 69 71 71 71 70 71 71 73 71 73 74 72 71 72 74 76 76 77 75 80 74 77 75 75 69 68 67 66 69 72 74 74 66 69 74 75 71 71 75 74 73 72 71 67 68 70 72 69 71 74 72 70 75 77 75 73 72 74 73 73 75 72 73 75 77 80 79 79 78 78 78 76 76 76
59 61 60 65 64 66 68 68 68 70 71 69 72 72 71 70 72 70 73 72 71 72 71 71 72 73 75 77 75 76 75 76 75 75 74 71 71 73 70 67 68 71 72 72 74 73 70 74 74 74 74 74 71 74 73 69 72 74 72 72 73 74 74 76 76 75 71 69 75 75 71 75 77 76 72 75 77 77 77 78 78 78 77 77 75
59 59 59 60 60 67 67 67 68 68 71 70 73 72 73 71 71 71 70 74 71 71 72 72 69 71 73 75 76 76 77 76 76 76 71 72 67 68 69 71 71 77 72 76 75 72 71 72 75 75 75 74 75 75 70 69 72 72 72 74 74 76 77 76 76 73 71 74 73 69 74 74 74 72 72 74 72 74 76 76 76 77 76 76 76
62 60 59 61 59 62 65 65 66 66 68 71 72 72 72 74 72 71 72 73 69 69 69 68 67 68 70 74 76 76 76 77 77 76 74 71 68 69 71 77 77 76 78 76 81 76 75 72 73 71 74 67 71 70 73 70 71 70 73 74 76 77 77 77 75 73 75 74 75 75 72 74 71 71 74 74 76 74 72 73 76 76 76 76 76
62 59 60 61 61 63 64 63 65 65 67 68 72 72 74 72 73 70 70 72 69 71 71 70 69 68 70 71 74 75 76 76 77 77 75 73 69 70 68 72 74 76 75 75 74 75 74 66 77 76 77 77 70 66 67 72 73 68 68 72 76 76 76 77 76 73 76 75 76 74 72 72 74 75 76 74 74 75 74 74 75 75 75 76 76
63 60 62 60 64 63 62 63 66 66 69 72 72 71 72 73 71 72 73 71 70 68 70 70 69 65 66 70 74 75 76 76 77 77 77 72 71 74 71 73 73 74 75 72 75 74 74 73 77 75 75 74 74 70 67 68 65 64 66 71 76 77 77 76 77 77 76 75 75 76 75 75 73 75 76 76 76 74 73 74 75 76 75 74 75
64 64 64 65 72 69 67 70 66 69 72 74 74 73 71 74 70 72 70 73 72 69 71 70 68 68 66 72 76 74 76 76 76 77 76 73 72 72 76 76 73 75 76 73 71 74 73 71 72 75 76 75 75 72 70 71 64 62 68 68 69 76 77 76 78 77 77 76 76 75 76 75 75 76 76 77 76 75 75 76 76 76 75 75 75
67 66 73 73 72 73 71 72 71 71 72 75 73 71 70 71 68 69 71 72 70 70 70 69 67 67 67 71 75 75 76 76 76 76 76 75 73 72 74 72 75 74 75 72 70 73 73 72 73 71 75 73 73 72 75 72 71 70 71 70 70 71 73 74 74 75 77 77 76 77 76 75 76 75 75 76 77 76 75 75 76 75 75 74 75
71 73 72 72 72 72 72 73 76 72 72 72 72 70 69 71 70 67 69 69 70 68 67 68 66 65 67 70 75 72 76 75 76 75 76 76 75 76 74 73 73 75 74 73 71 70 75 73 77 78 71 73 70 71 70 71 72 72 73 70 71 73 71 72 71 75 74 76 76 77 77 77 76 74 75 76 76 76 75 74 74 74 74 74 74
71 72 72 73 73 72 72 73 75 77 73 72 73 71 71 70 69 67 67 67 69 70 67 68 66 65 73 76 76 73 75 76 76 76 76 75 74 72 75 76 75 76 77 77 73 75 76 73 72 76 74 72 73 69 68 69 70 68 71 72 74 73 71 69 67 74 72 75 75 76 76 75 77 75 75 75 75 75 75 74 73 73 73 74 74
71 72 72 73 73 72 73 73 76 76 75 72 75 73 72 72 69 69 67 71 70 68 67 68 67 65 67 72 75 77 76 74 75 75 74 72 73 74 74 75 75 75 75 76 75 75 76 71 74 73 72 71 72 70 74 75 67 68 71 71 68 67 71 72 70 72 69 74 73 72 74 71 75 75 75 75 76 75 74 73 73 73 74 74 75
71 73 73 73 74 73 73 73 74 74 75 74 75 72 73 75 75 74 71 74 75 73 73 72 70 68 68 66 74 75 74 72 72 71 71 73 74 74 71 74 76 77 75 76 75 72 76 75 70 72 74 70 68 70 70 71 71 71 71 69 68 65 66 68 67 67 70 71 75 71 68 71 74 72 73 73 74 74 75 74 72 74 74 75 75
71 72 73 74 73 73 74 73 74 74 75 75 75 77 77 76 77 76 76 76 75 73 71 70 69 73 69 69 69 72 73 72 71 71 71 73 75 75 75 73 75 76 73 76 75 70 70 70 71 75 73 70 65 68 70 67 68 73 71 72 68 66 66 67 66 71 69 70 69 69 69 70 73 72 72 73 74 74 74 73 74 75 75 76 76
71 72 74 74 72 73 74 74 75 75 75 75 75 76 76 75 74 74 74 74 74 72 71 69 67 69 68 73 72 69 70 71 71 72 70 71 73 73 74 72 72 77 76 72 70 71 71 68 69 73 71 72 75 73 68 74 67 73 72 73 74 70 67 68 65 67 72 73 75 69 68 68 72 72 72 73 73 74 75 74 74 76 75 75 76
70 71 72 71 71 72 74 75 75 76 74 75 75 75 74 75 74 72 72 73 73 74 76 75 74 75 74 73 73 74 73 69 68 70 70 72 73 73 74 74 71 76 76 75 73 68 67 67 71 72 71 78 76 74 71 69 73 71 70 72 73 70 69 71 69 66 65 74 75 70 71 68 70 72 71 72 73 74 74 74 75 74 75 75 77
66 69 70 70 71 73 73 74 75 75 75 75 75 75 75 74 74 73 74 73 70 73 74 75 75 75 75 72 73 76 72 72 71 72 71 70 72 74 74 73 72 70 73 72 70 68 69 73 74 75 77 79 76 75 71 71 74 74 69 69 71 70 68 68 69 68 67 65 69 69 73 70 73 74 74 75 75 75 74 75 75 75 75 75 76
66 63 69 69 70 72 74 74 74 75 75 75 75 75 75 75 74 73 72 73 75 73 73 74 75 75 74 74 73 72 74 73 73 71 71 70 72 72 74 74 72 72 72 70 69 68 67 72 75 75 77 77 75 73 77 76 71 71 72 74 71 73 68 70 69 69 71 68 67 68 70 76 75 74 73 76 76 76 75 75 75 74 74 75 75
66 64 66 69 70 72 73 74 74 75 75 75 75 75 75 75 75 74 73 74 73 74 74 73 74 75 73 73 74 76 72 72 73 73 73 70 70 71 70 69 70 68 70 69 68 69 71 74 73 71 74 77 79 77 74 76 72 73 67 74 76 73 72 70 69 70 70 71 67 69 69 67 70 73 73 74 74 76 75 75 75 75 74 74 74
67 65 67 68 70 73 73 73 74 75 75 74 74 74 74 74 74 74 73 73 74 73 73 72 74 74 73 72 73 75 75 74 71 72 72 70 69 70 67 67 68 71 71 69 70 66 66 67 66 70 74 75 74 75 72 73 75 77 71 75 75 68 70 69 72 71 72 71 70 70 70 70 70 70 72 73 75 75 75 75 74 74 74 74 75